Home > Weather > Kaufbeuren > Past weeks

Flag for Germany Past Weather in Kaufbeuren, Bavaria, Germany — Yesterday and Last 2 Weeks

Now
55 °F

Cool.


Feels Like: 55 °F
Forecast: 53 / 67 °F
Wind: 2 mph from North

Location: Altenstadt Airport

Current Time: Jun 26, 2016 at 9:12:10 PM

Latest Report: Jun 26, 2016 at 8:20 PM


Visibility: N/A

Pressure: 30.12 "Hg (27.73 "Hg at 693m altitude)

Humidity: 88%

Dew Point: 52 °F

Location of KaufbeurenLocation

Past Weather in Kaufbeuren — Graph

°F

Kaufbeuren Temperature Yesterday

Maximum temperature yesterday: 79 °F (at 1:20 PM)
Minimum temperature yesterday: 57 °F (at 5:20 AM)
Average temperature yesterday: 65 °F

High & Low Weather Summary for the Past Weeks

 TemperatureHumidityPressure
High86 °F (Jun 24, 3:20 PM)100% (Jun 16, 10:20 PM)30.33 "Hg (Jun 16, 10:20 PM)
Low45 °F (Jun 17, 5:20 AM)35% (Jun 23, 1:20 PM)29.59 "Hg (Jun 14, 3:20 PM)
Average60 °F79%29.99 "Hg
* Reported Jun 11 7:20 PM — Jun 26 7:20 PM, Kaufbeuren, Weather by CustomWeather, © 2016

Note: Actual official high and low records may vary slightly from our data, if they occured in-between our weather recording intervals... More about our weather records

Advertising

Kaufbeuren Weather History for the Previous 24 Hours

Scroll right to see more
 ConditionsComfort  
Time TempWeatherWind HumidityBarometerVisibility
7:20 PM
Sun, Jun 26
55 °FCool.2 mph88%30.12 "HgN/A
6:20 PM57 °FCool.3 mph88%30.12 "HgN/A
5:20 PM55 °FCool.2 mph82%30.12 "HgN/A
4:20 PM57 °FCool.5 mph77%30.15 "HgN/A
3:20 PM57 °FCool.6 mph88%30.12 "HgN/A
2:20 PM57 °FCool.7 mph82%30.12 "HgN/A
1:20 PM57 °FCool.6 mph88%30.12 "HgN/A
12:20 PM55 °FCool.7 mph94%30.12 "HgN/A
11:20 AM55 °FCool.8 mph94%30.12 "HgN/A
10:20 AM55 °FCool.8 mph94%30.12 "HgN/A
9:20 AM55 °FCool.7 mph94%30.12 "HgN/A
8:20 AM55 °FCool.3 mph100%30.12 "HgN/A
7:20 AM55 °FCool.3 mph94%30.12 "HgN/A
6:20 AM55 °FCool.6 mph100%30.12 "HgN/A
5:20 AM55 °FCool.1 mph94%30.09 "HgN/A
4:20 AM57 °FCool.3 mph94%30.09 "HgN/A
3:20 AM57 °FCool.6 mph94%30.09 "HgN/A
2:20 AM57 °FCool.6 mph100%30.09 "HgN/A
1:20 AM57 °FCool.5 mph100%30.09 "HgN/A
12:20 AM59 °FCool.5 mph94%30.09 "HgN/A
11:20 PM
Sat, Jun 25
59 °FCool.7 mph94%30.09 "HgN/A
10:20 PM61 °FCool.8 mph88%30.09 "HgN/A
9:20 PM59 °FCool.13 mph94%30.07 "HgN/A
Weather by CustomWeather, © 2016

See weather overviewHow to use our weather pages